Tracking 28052 objects as of 21-Sep-2023
HD Live streaming from Space Station
objects crossing your sky now

SXC3-2111 (SIBSU RESHUCUBE)

Track SXC3-2111 (SIBSU RESHUCUBE) now!
10-day predictions
SXC3-2111 (SIBSU RESHUCUBE) is classified as:


NORAD ID: 53382
Int'l Code: 2022-096N
Perigee: 450.6 km
Apogee: 458.8 km
Inclination: 97.4 °
Period: 93.5 minutes
Semi major axis: 6825 km
RCS: Unknown
Launch date: August 9, 2022
Source: (TBD)
Launch site: TYURATAM MISSILE AND SPACE COMPLEX (TTMTR)

Uplink (MHz):
Downlink (MHz): 435.380
Beacon (MHz):
Mode: 2400bps GMSK USP
Call sign: RS8S
Status: Active

Your satellite tracking list
Your tracking list is empty




NASA's NSSDC Master Catalog

Two Line Element Set (TLE):
1 53382U 22096N   23264.40042486  .00031775  00000-0  80893-3 0  9999
2 53382  97.4031 171.0880 0005985  85.1929 275.0000 15.39499593 62440
Source of the keplerian elements: AFSPC